Temperature
6 6 7 7 7 8 8 8 9 9 9 9 10 9 10 10 10 10 10 10 10 10 10 10 10 10 10 10 10 9 9 9 9 9 9 9 9 9 9 9 9 9 9
6 6 6 6 6 7 7 8 8 8 8 9 9 9 9 9 9 9 9 9 10 10 10 10 10 10 10 9 9 9 9 9 9 9 8 8 8 8 8 8 8 8 8
5 5 5 5 6 6 7 7 7 7 8 8 8 8 8 9 9 9 9 9 9 9 9 9 10 9 9 9 9 9 9 9 8 8 8 8 8 8 8 8 8 8 8
5 5 4 5 5 5 6 6 7 7 7 7 8 8 8 8 8 8 8 8 9 9 9 9 9 9 9 9 9 9 8 8 8 8 8 8 8 8 8 8 8 8 8
4 4 4 4 4 5 5 5 6 6 6 7 7 7 7 7 7 8 8 8 8 8 8 8 8 8 9 8 8 8 8 8 8 8 8 8 8 8 8 7 7 7 7
4 4 3 3 4 4 4 5 5 5 6 6 6 6 7 7 7 7 7 7 7 8 8 8 8 8 8 8 8 8 8 8 8 7 7 7 7 7 7 7 7 7 7
3 3 3 3 3 3 4 4 4 5 5 5 5 6 6 6 6 6 6 7 7 7 7 7 7 7 7 7 7 7 7 7 7 7 7 7 7 7 7 7 7 6 6
2 2 2 2 2 2 3 3 4 4 4 4 5 5 5 5 5 5 6 6 6 6 6 6 6 6 7 7 7 7 7 7 7 7 7 7 7 6 6 6 6 6 6
1 1 1 1 1 2 2 3 3 3 3 4 4 4 4 4 5 5 5 5 5 5 5 5 6 6 6 6 6 6 6 6 6 6 6 6 6 6 6 6 6 6 6
-0 0 0 0 1 1 1 2 2 2 3 3 3 3 4 4 4 4 4 4 4 5 5 5 5 5 5 5 5 6 6 6 6 6 6 6 6 6 6 6 6 6 5
-1 -1 -0 -0 -0 0 1 1 1 2 2 2 3 3 3 3 3 3 4 4 4 4 4 4 4 4 4 5 5 5 5 5 5 5 5 5 5 5 5 5 5 5 5
-1 -1 -1 -1 -0 -0 0 1 1 1 1 2 2 2 2 3 3 3 3 3 3 3 4 4 4 4 4 4 4 4 4 4 5 5 5 5 5 5 5 5 5 5 5
-2 -2 -1 -1 -1 -1 -0 -0 0 0 1 1 1 1 2 2 2 2 2 3 3 3 3 3 3 3 3 3 3 3 4 4 4 4 4 4 4 4 4 4 4 4 4
-3 -2 -2 -2 -2 -1 -1 -1 -1 -0 -0 0 0 1 1 1 1 2 2 2 2 2 2 2 2 2 3 3 3 3 3 3 3 3 3 4 4 4 4 4 4 4 4
-3 -3 -3 -3 -2 -2 -2 -1 -1 -1 -1 -1 -0 -0 0 0 1 1 1 1 1 1 1 1 2 2 2 2 2 2 2 2 2 3 3 3 3 3 3 3 3 3 3
-4 -4 -4 -3 -3 -3 -2 -2 -2 -2 -2 -1 -1 -1 -1 -0 -0 0 0 0 0 1 1 1 1 1 1 1 1 1 2 2 2 2 2 2 2 2 3 3 3 3 2
-4 -4 -4 -4 -4 -4 -3 -3 -3 -2 -2 -2 -2 -2 -1 -1 -1 -1 -0 -0 -0 -0 0 0 0 0 0 1 1 1 1 1 1 1 1 2 2 2 2 2 2 2 2
-5 -5 -5 -5 -4 -4 -4 -3 -3 -3 -3 -3 -2 -2 -2 -2 -2 -1 -1 -1 -1 -1 -1 -0 -0 -0 0 0 0 0 0 0 1 1 1 1 1 1 1 2 2 2 2
-5 -5 -5 -5 -5 -4 -4 -4 -3 -3 -3 -3 -3 -3 -3 -2 -2 -2 -2 -2 -1 -1 -1 -1 -1 -1 -0 -0 -0 -0 -0 -0 0 0 0 0 1 1 1 1 1 1 1
-5 -5 -5 -5 -5 -5 -5 -4 -4 -4 -4 -4 -4 -4 -3 -3 -3 -3 -3 -2 -2 -2 -2 -1 -1 -1 -1 -1 -1 -1 -1 -1 -1 -0 -0 -0 0 0 0 0 0 0 0
-6 -6 -6 -5 -5 -5 -5 -5 -5 -5 -5 -4 -4 -4 -4 -4 -4 -3 -3 -3 -3 -2 -2 -2 -2 -2 -2 -2 -1 -1 -1 -1 -1 -1 -1 -1 -1 -1 -1 -1 -0 -0 -0
-6 -6 -6 -6 -6 -6 -6 -6 -6 -5 -5 -5 -5 -5 -4 -4 -4 -4 -4 -3 -3 -3 -3 -3 -3 -2 -2 -2 -2 -2 -2 -2 -2 -1 -1 -1 -1 -1 -1 -1 -1 -1 -1
-6 -6 -6 -6 -6 -6 -6 -6 -6 -6 -6 -5 -5 -5 -5 -5 -5 -5 -4 -4 -4 -4 -4 -3 -3 -3 -3 -3 -3 -3 -2 -2 -2 -2 -2 -2 -2 -2 -2 -2 -2 -2 -2
-7 -7 -7 -7 -7 -7 -7 -7 -7 -6 -6 -6 -6 -6 -5 -5 -5 -5 -5 -5 -5 -4 -4 -4 -4 -4 -3 -3 -3 -3 -3 -3 -3 -3 -3 -3 -2 -2 -2 -2 -2 -2 -2
-8 -7 -7 -7 -7 -7 -7 -7 -7 -7 -6 -6 -6 -6 -6 -6 -6 -6 -6 -5 -5 -5 -5 -5 -4 -4 -4 -4 -4 -4 -3 -3 -3 -3 -3 -3 -3 -3 -3 -3 -3 -3 -3
-8 -8 -8 -8 -7 -7 -7 -7 -7 -7 -7 -7 -6 -6 -6 -6 -6 -6 -6 -6 -6 -6 -5 -5 -5 -5 -5 -4 -4 -4 -4 -4 -4 -4 -4 -4 -4 -4 -4 -3 -3 -3 -3
Wind_Speed
2 3 4 4 4 4 4 4 4 4 4 3 3 2 2 2 2 3 4 5 5 5 5 4 4 4 3 3 4 4 4 3 3 3 2 2 2 2 2 3 4 4 5
2 3 4 4 3 3 3 3 4 3 3 2 2 2 2 1 2 2 3 4 4 4 4 4 3 3 3 3 4 4 3 2 2 3 3 1 1 1 1 1 2 3 4
2 3 4 3 3 3 3 2 2 3 3 3 3 3 3 2 1 2 2 2 3 3 3 3 3 3 3 3 3 4 4 3 2 1 2 3 3 1 0 1 1 2 2
3 3 3 3 3 2 3 3 3 3 3 3 2 3 2 2 1 1 1 2 3 3 3 3 3 2 2 3 3 3 3 4 3 1 0 1 2 3 1 1 1 2 2
3 3 3 3 3 3 3 3 3 3 3 3 3 2 2 2 2 2 2 2 2 2 2 2 2 2 2 2 2 2 3 3 4 3 2 1 0 1 2 2 2 1 2
4 4 4 4 4 4 3 3 3 3 3 3 3 2 2 2 2 2 2 1 1 1 1 2 2 2 1 2 2 2 3 3 3 3 2 3 2 2 2 2 3 3 2
5 5 5 4 3 3 3 3 4 3 3 3 3 2 2 2 2 1 2 1 1 1 1 1 1 1 1 1 2 2 2 3 3 4 3 3 3 2 2 2 2 2 1
6 5 4 3 3 3 3 3 3 3 3 3 2 2 2 1 1 0 0 1 1 1 2 2 2 1 2 2 2 2 2 2 3 3 3 2 3 2 2 3 3 1 1
5 5 5 4 3 3 3 3 3 3 3 3 3 3 2 2 2 2 1 1 1 0 1 1 2 2 2 1 2 2 2 2 3 3 3 3 3 2 2 2 3 4 3
5 4 4 4 4 4 3 3 3 3 3 3 3 2 2 2 2 1 1 1 1 1 0 1 1 2 2 2 2 2 2 3 3 3 4 3 3 3 3 3 3 3 3
5 4 4 4 4 4 3 3 3 3 3 3 3 2 2 2 2 2 2 1 1 1 1 1 2 2 2 2 2 3 3 3 3 3 4 4 3 3 3 3 3 3 3
5 4 4 4 4 4 4 3 3 3 3 3 3 3 3 2 2 2 2 2 2 1 1 1 1 2 2 2 3 3 3 3 3 4 4 4 3 4 3 3 4 3 3
6 5 5 5 5 4 4 4 3 3 3 3 3 3 2 2 2 2 2 2 2 2 1 1 2 2 2 2 2 3 3 3 3 3 4 4 4 4 4 4 4 3 3
6 6 5 5 5 5 5 4 4 4 3 3 2 2 2 2 2 2 2 2 2 2 2 1 2 2 2 2 2 2 2 3 3 3 3 4 4 5 5 5 4 3 3
7 7 6 5 5 5 5 4 4 4 3 2 2 2 2 2 2 2 2 2 2 3 2 1 1 2 2 3 3 2 2 2 2 3 3 4 4 5 4 4 4 4 4
7 7 7 6 6 5 5 4 4 4 3 2 2 2 2 2 2 2 2 2 2 3 2 2 2 2 2 4 4 3 2 3 3 4 3 3 4 5 6 6 6 6 6
7 7 6 6 6 5 5 5 4 4 3 2 2 2 2 2 2 3 3 3 3 3 2 1 2 2 3 4 5 4 3 3 4 4 4 3 3 4 3 4 5 5 6
7 6 6 6 6 5 5 5 4 3 3 3 3 3 3 3 3 3 3 3 3 2 2 2 2 2 3 4 5 5 3 3 4 4 4 4 4 4 4 3 3 4 4
6 5 5 5 5 5 4 4 4 3 3 3 4 4 3 3 3 3 4 3 3 2 2 2 2 1 2 3 3 3 2 3 3 3 3 3 4 5 5 4 4 3 3
5 5 5 5 5 5 4 4 4 3 3 4 4 4 3 3 3 4 4 3 2 2 2 2 2 1 2 2 3 3 2 2 2 2 2 4 4 5 5 4 4 5 4
6 6 5 5 4 5 4 4 4 4 4 4 4 4 4 3 3 3 3 2 2 2 2 2 2 1 1 2 2 3 2 2 2 3 3 2 4 5 5 4 4 5 4
6 6 5 5 4 4 4 4 4 4 4 4 4 4 4 4 3 2 3 2 2 1 2 2 2 2 2 2 2 3 3 3 2 2 2 2 4 4 5 4 4 4 3
6 6 5 5 5 4 4 4 5 5 4 4 4 4 4 4 3 2 2 2 2 1 2 2 2 2 2 2 3 3 3 3 2 2 3 4 4 4 3 3 3 3 2
5 5 5 5 5 5 4 4 4 4 4 4 4 4 3 3 3 3 2 2 2 2 2 2 2 2 2 2 2 2 2 2 2 2 3 4 4 3 3 2 2 2 2
5 5 4 5 5 5 4 5 4 4 4 4 4 4 4 3 3 3 3 3 2 2 2 2 2 2 2 3 4 3 2 1 2 1 1 1 1 1 1 1 1 1 1
5 5 5 5 5 5 5 4 4 4 3 4 4 3 3 3 3 3 4 6 5 6 5 5 4 3 3 4 4 3 3 2 2 1 1 1 1 2 1 1 1 1 2
Wind_Direction
91 93 85 67 67 64 71 77 83 83 85 93 103 110 112 96 90 88 109 112 116 118 115 115 123 125 126 135 134 128 121 124 124 109 93 52 58 80 75 85 102 114 126
95 89 90 79 66 65 57 66 75 81 89 85 106 118 115 105 94 77 90 103 105 111 120 113 124 128 135 135 136 130 130 137 156 143 135 135 9 354 76 87 111 121 128
117 101 91 86 74 70 64 58 66 74 76 67 94 102 96 91 80 87 99 82 102 105 114 119 117 128 139 157 155 148 146 161 194 171 154 157 189 179 217 203 152 135 125
103 95 93 90 78 67 62 60 61 64 68 72 99 118 125 135 140 134 117 90 110 116 109 118 125 133 138 159 174 161 157 158 178 214 222 152 138 146 168 228 194 166 171
110 104 89 95 83 69 63 66 67 62 62 65 74 103 112 108 112 119 128 123 96 110 122 126 130 134 137 151 162 163 171 169 173 175 183 186 85 138 153 189 203 204 203
79 84 77 74 77 70 62 64 71 66 57 59 71 71 100 110 113 135 143 143 131 104 112 125 119 132 134 149 168 174 182 184 174 172 170 170 170 183 173 180 191 203 211
59 64 60 50 59 66 64 65 65 56 48 50 61 60 49 109 130 148 162 154 154 143 189 141 116 112 136 156 154 158 184 182 177 184 188 187 191 176 170 167 190 201 205
43 49 50 46 51 53 63 69 65 56 45 48 50 59 45 58 80 87 156 163 180 179 182 173 159 161 163 172 163 159 189 181 184 191 189 189 195 178 177 176 170 201 235
32 45 42 39 43 45 43 60 65 53 42 40 42 45 38 40 42 29 19 60 42 158 171 174 172 174 174 172 164 181 195 191 195 196 195 198 201 191 191 184 176 179 216
25 34 41 39 32 35 37 46 49 48 46 38 36 33 34 39 32 26 12 2 21 18 195 192 194 186 182 183 178 192 190 198 207 198 195 206 210 202 194 196 199 191 195
17 21 27 34 37 35 34 41 38 34 35 30 24 29 26 36 38 23 355 345 358 347 280 229 214 212 201 187 185 203 195 203 212 211 207 213 210 206 204 202 202 203 190
19 22 26 33 31 25 25 32 28 24 22 15 16 20 18 23 30 14 351 347 339 328 297 267 241 236 225 204 199 204 202 205 213 216 215 221 216 217 210 203 204 208 199
18 20 25 27 21 17 18 19 17 13 14 17 15 11 3 14 6 349 336 336 335 319 292 252 254 249 235 223 217 209 204 208 215 214 215 222 216 225 217 210 207 210 213
16 19 20 18 12 9 9 8 4 4 4 13 12 358 348 353 349 340 334 329 323 302 278 248 241 243 243 241 236 219 218 219 219 217 214 219 223 227 218 213 210 205 203
15 14 7 2 4 3 360 357 354 351 348 1 2 347 346 349 346 338 319 312 306 298 274 256 249 238 240 241 234 222 226 228 232 235 225 221 230 235 229 220 208 203 208
6 2 359 356 356 352 347 346 346 340 341 348 345 340 341 340 333 322 313 303 294 286 269 253 248 247 253 246 249 245 235 235 237 240 238 232 234 240 239 233 225 213 211
359 354 350 347 344 341 339 335 332 334 339 341 334 329 330 326 325 315 303 293 287 279 274 269 253 250 250 249 253 249 245 241 243 242 241 242 238 240 245 238 232 232 228
350 346 344 340 336 333 333 330 332 336 338 334 329 329 332 328 325 320 304 298 289 272 270 263 255 254 263 260 253 245 245 250 248 245 241 237 234 235 228 228 227 230 235
340 338 334 330 331 333 332 335 335 339 343 336 330 328 325 321 318 310 307 303 297 291 283 274 268 253 268 274 270 262 246 243 244 245 245 238 234 236 228 223 229 238 252
339 336 334 337 338 335 337 343 340 345 338 330 325 325 321 309 305 303 305 304 299 293 297 300 291 266 265 282 278 268 243 240 245 243 243 246 249 242 233 221 219 229 239
337 337 337 339 336 335 345 350 345 334 326 329 330 326 324 314 303 306 304 305 304 306 305 305 306 305 294 287 279 267 242 232 238 245 248 250 250 247 244 246 236 236 235
339 339 338 333 335 344 350 345 334 326 330 333 333 331 329 320 319 318 315 312 300 303 305 304 310 316 319 309 282 271 265 259 243 251 256 253 253 256 256 263 248 240 246
333 334 334 332 335 345 348 336 327 332 336 338 336 332 329 328 327 323 318 315 310 298 295 294 295 309 320 316 300 282 274 266 259 259 265 270 266 268 264 260 254 245 233
331 334 335 334 330 335 339 331 330 337 339 336 331 328 333 335 342 339 333 326 320 311 303 299 301 305 313 318 308 280 274 260 253 255 266 277 271 272 269 268 257 243 229
331 329 327 326 324 328 332 333 334 337 335 329 329 332 333 334 345 346 338 329 325 300 295 292 283 277 286 286 287 282 272 266 248 256 277 283 269 261 252 256 248 228 218
324 326 327 326 326 328 327 330 332 330 329 330 333 334 338 338 338 342 348 352 340 340 334 323 305 297 287 287 283 287 283 270 264 277 235 243 242 233 233 245 252 250 236
Height
1495 1496 1496 1497 1498 1500 1502 1504 1505 1508 1510 1513 1515 1517 1520 1522 1525 1527 1529 1531 1533 1535 1537 1539 1541 1543 1545 1547 1549 1551 1553 1554 1556 1558 1560 1561 1563 1564 1565 1566 1567 1568 1569
1494 1495 1495 1496 1497 1498 1500 1502 1504 1507 1509 1511 1514 1516 1518 1521 1523 1525 1527 1529 1531 1533 1535 1537 1539 1541 1543 1545 1547 1548 1550 1552 1554 1556 1557 1559 1562 1562 1563 1564 1565 1566 1567
1492 1493 1494 1495 1496 1497 1499 1501 1503 1505 1507 1509 1512 1514 1516 1518 1521 1523 1524 1526 1528 1530 1532 1534 1536 1538 1540 1542 1544 1546 1548 1549 1552 1554 1556 1557 1558 1559 1561 1562 1563 1564 1565
1492 1493 1494 1495 1496 1497 1498 1500 1501 1504 1505 1507 1509 1511 1513 1515 1518 1520 1522 1524 1526 1528 1530 1532 1534 1536 1538 1540 1542 1544 1546 1548 1549 1551 1553 1555 1555 1557 1557 1559 1560 1561 1562
1491 1492 1493 1495 1496 1496 1497 1499 1500 1502 1504 1505 1507 1509 1511 1513 1516 1518 1520 1522 1523 1525 1527 1529 1531 1533 1535 1537 1539 1541 1543 1545 1546 1548 1550 1552 1553 1554 1555 1556 1557 1559 1560
1490 1492 1493 1494 1495 1496 1497 1498 1499 1501 1502 1504 1505 1507 1509 1511 1513 1515 1517 1519 1520 1522 1524 1526 1527 1529 1532 1534 1536 1538 1540 1542 1543 1545 1547 1548 1550 1551 1552 1553 1554 1555 1557
1490 1491 1492 1493 1494 1495 1496 1497 1498 1499 1501 1502 1504 1505 1507 1509 1510 1512 1514 1515 1517 1519 1521 1523 1524 1526 1528 1530 1532 1534 1536 1538 1540 1541 1543 1545 1547 1548 1550 1551 1551 1552 1553
1491 1492 1492 1493 1494 1494 1495 1496 1497 1498 1500 1501 1502 1504 1506 1507 1508 1510 1511 1512 1514 1516 1518 1519 1521 1523 1525 1527 1528 1530 1532 1534 1536 1538 1540 1541 1543 1544 1546 1548 1549 1549 1550
1492 1492 1493 1494 1494 1494 1495 1495 1496 1497 1498 1499 1500 1502 1504 1504 1506 1507 1509 1510 1511 1513 1514 1516 1518 1520 1522 1523 1525 1526 1528 1530 1532 1534 1536 1537 1539 1540 1542 1544 1545 1547 1546
1493 1493 1493 1493 1494 1494 1494 1495 1496 1496 1497 1498 1499 1500 1502 1502 1503 1505 1506 1507 1508 1510 1511 1513 1515 1516 1518 1519 1521 1522 1524 1526 1528 1530 1532 1533 1535 1536 1538 1539 1541 1542 1543
1494 1493 1493 1493 1493 1493 1494 1494 1494 1495 1495 1497 1498 1499 1500 1500 1501 1503 1504 1505 1506 1507 1508 1510 1511 1513 1514 1516 1517 1518 1520 1522 1523 1525 1527 1529 1530 1531 1533 1534 1536 1537 1539
1495 1494 1493 1493 1493 1493 1493 1493 1493 1494 1495 1495 1496 1497 1497 1498 1499 1500 1501 1502 1503 1504 1505 1506 1508 1509 1510 1512 1513 1514 1516 1517 1519 1520 1522 1524 1526 1527 1528 1529 1531 1532 1534
1495 1494 1493 1493 1493 1493 1492 1492 1493 1493 1493 1494 1494 1494 1495 1495 1496 1497 1498 1499 1500 1501 1502 1502 1504 1505 1506 1508 1509 1510 1512 1513 1514 1516 1517 1519 1521 1522 1523 1524 1526 1527 1529
1495 1494 1493 1493 1493 1492 1492 1491 1492 1492 1492 1492 1492 1492 1493 1493 1493 1494 1495 1496 1497 1498 1498 1499 1500 1501 1502 1504 1505 1506 1507 1509 1510 1511 1513 1514 1516 1517 1518 1519 1520 1522 1523
1495 1494 1494 1493 1491 1491 1490 1490 1490 1490 1490 1490 1490 1490 1490 1490 1491 1492 1492 1493 1494 1494 1495 1496 1497 1498 1498 1500 1501 1501 1503 1504 1505 1506 1508 1509 1511 1512 1513 1514 1515 1517 1518
1496 1495 1493 1492 1491 1490 1490 1489 1488 1488 1488 1488 1488 1488 1487 1488 1488 1489 1489 1490 1490 1491 1491 1492 1493 1493 1494 1496 1496 1497 1498 1499 1500 1502 1503 1504 1506 1507 1508 1509 1510 1512 1513
1497 1495 1493 1492 1491 1490 1488 1487 1486 1486 1486 1485 1485 1485 1485 1485 1485 1485 1486 1486 1486 1487 1487 1488 1489 1489 1490 1491 1492 1493 1494 1495 1496 1497 1498 1499 1500 1502 1503 1504 1505 1506 1507
1496 1495 1493 1491 1490 1488 1487 1486 1485 1484 1483 1483 1482 1482 1482 1482 1481 1482 1482 1482 1482 1483 1483 1484 1485 1485 1486 1487 1487 1488 1489 1490 1491 1492 1493 1494 1495 1496 1498 1499 1499 1500 1501
1496 1494 1492 1490 1488 1487 1485 1483 1482 1481 1481 1480 1480 1479 1479 1478 1478 1478 1478 1478 1479 1479 1479 1480 1480 1481 1481 1482 1483 1484 1484 1485 1486 1487 1488 1489 1490 1491 1493 1494 1494 1494 1496
1495 1493 1491 1488 1486 1485 1483 1481 1480 1479 1478 1478 1478 1477 1477 1476 1475 1475 1475 1475 1475 1475 1475 1475 1476 1476 1477 1477 1478 1479 1480 1480 1481 1482 1483 1484 1485 1486 1487 1488 1489 1489 1490
1493 1491 1489 1487 1485 1483 1481 1479 1477 1477 1476 1476 1475 1475 1474 1473 1472 1472 1471 1471 1471 1471 1471 1471 1471 1472 1472 1473 1474 1475 1476 1476 1477 1478 1478 1479 1480 1481 1482 1483 1484 1484 1486
1491 1489 1487 1485 1483 1482 1480 1478 1476 1475 1475 1474 1473 1472 1471 1470 1469 1469 1468 1468 1467 1467 1467 1467 1467 1468 1468 1469 1470 1471 1472 1472 1473 1473 1474 1475 1476 1477 1478 1478 1479 1480 1481
1490 1488 1485 1483 1482 1480 1479 1477 1475 1474 1473 1472 1470 1469 1468 1467 1467 1466 1465 1464 1464 1464 1464 1464 1463 1463 1464 1465 1466 1467 1467 1468 1469 1469 1470 1471 1472 1472 1473 1473 1474 1475 1476
1488 1485 1483 1481 1480 1478 1477 1475 1474 1472 1471 1469 1468 1467 1466 1465 1464 1463 1463 1462 1461 1461 1461 1460 1460 1460 1460 1461 1462 1462 1463 1464 1464 1465 1466 1466 1467 1468 1468 1469 1470 1470 1471
1485 1483 1481 1479 1478 1476 1475 1473 1472 1470 1468 1467 1466 1465 1464 1463 1462 1461 1461 1460 1459 1459 1459 1458 1457 1457 1457 1457 1458 1459 1459 1459 1460 1461 1462 1462 1462 1463 1464 1464 1465 1466 1467
1484 1481 1479 1477 1476 1474 1472 1471 1470 1468 1467 1465 1464 1463 1462 1461 1460 1459 1458 1457 1457 1456 1456 1455 1455 1455 1455 1455 1455 1455 1456 1456 1457 1458 1458 1458 1459 1459 1459 1460 1461 1462 1462